Wind_Speed
50 51 51 50 51 53 54 55 56 55 55 56 56 57 57 56 55 55 55 54 54 54 55 55 56 56 57 58 58 58 57 56 55 55 54 54 53 53 52 51 50 50 50 50 51 50 50 50 51 51 52 52 52 51 49 47 45 43 42 41 39 37 35 34 34 35 36 38 40 42 42 42 43 45 47 49 49 49 50 52 53 53 53 52 51
55 54 52 51 51 52 53 54 54 53 53 53 54 55 57 58 58 58 57 58 58 58 58 58 59 59 59 59 59 58 57 56 56 56 56 55 55 55 54 54 53 53 53 53 53 53 53 53 54 54 54 54 53 53 52 50 48 46 43 43 43 42 40 39 37 36 37 38 39 41 42 43 44 45 46 48 49 50 50 50 51 52 53 54 55
55 54 52 52 52 52 52 52 52 52 52 53 53 53 54 56 57 58 58 59 59 59 60 59 59 59 59 59 58 58 57 57 57 56 56 56 56 56 56 56 56 56 55 55 55 55 55 55 55 56 56 55 55 54 53 52 50 48 46 44 44 44 44 43 43 42 41 41 40 40 40 42 44 45 46 47 49 49 49 49 49 50 51 53 54
53 52 51 52 53 53 53 52 53 53 52 53 53 54 55 56 57 58 59 60 60 61 62 62 61 61 60 60 59 59 59 58 58 58 57 57 57 56 57 57 57 57 57 57 57 57 57 58 58 57 57 56 55 53 53 51 50 49 48 46 45 45 45 46 46 46 46 46 45 43 41 41 43 44 44 45 47 47 47 47 48 49 50 51 52
46 48 50 51 53 54 55 54 54 54 54 55 56 56 57 57 58 59 59 60 61 62 63 63 64 64 64 63 63 62 61 60 59 59 59 58 58 57 58 58 58 58 59 59 60 60 60 59 58 57 56 54 53 52 51 51 51 50 49 49 47 46 46 47 49 50 49 49 49 47 44 42 41 41 41 43 44 44 44 44 45 46 48 49 51
36 35 37 42 45 48 52 55 57 57 56 57 58 58 58 58 58 59 59 59 59 59 59 60 61 62 62 63 63 62 62 62 62 62 62 62 61 60 60 60 60 60 60 61 61 61 59 58 56 55 54 53 52 51 51 51 52 51 50 50 50 50 49 50 51 51 51 51 50 49 48 45 42 42 44 45 44 43 41 41 41 42 44 46 48
45 36 26 27 33 38 41 44 49 54 55 56 58 58 58 58 58 58 58 58 57 57 58 58 58 59 59 60 60 60 61 62 64 65 65 65 65 64 62 62 61 62 62 61 61 59 58 57 56 55 54 53 52 52 52 52 52 51 51 51 53 54 53 51 51 51 51 51 51 50 49 48 46 45 45 45 45 43 40 38 39 41 42 43 44
50 45 35 25 21 26 32 33 36 43 47 51 54 56 58 58 58 58 58 58 58 58 59 60 61 61 61 62 62 62 63 64 65 65 65 65 65 64 63 62 61 62 61 61 60 59 58 58 57 56 55 54 53 53 54 53 53 53 53 53 54 55 55 53 52 52 53 52 51 51 50 49 49 48 46 43 41 40 39 40 44 45 44 44 44
48 48 46 41 33 28 26 25 28 33 38 43 48 51 55 58 59 59 60 61 61 61 62 63 64 64 64 64 65 66 66 66 66 65 64 64 63 63 62 61 60 60 59 58 58 58 58 58 58 57 57 56 56 56 56 56 56 55 55 55 55 55 55 55 55 54 55 54 52 51 52 51 50 49 47 43 41 41 44 48 50 48 47 47 46
50 46 45 47 46 38 27 21 22 28 35 42 46 48 52 56 58 59 61 61 63 64 65 66 66 66 67 68 69 69 69 67 65 64 64 63 62 61 60 59 58 58 58 57 58 58 59 59 59 59 59 59 59 59 59 58 57 57 57 57 56 55 55 56 57 56 56 56 54 53 53 53 52 49 47 46 46 48 51 53 52 50 49 50 49
55 49 44 45 46 41 34 29 27 26 31 40 46 47 50 54 55 58 61 62 63 64 65 65 66 67 68 69 70 70 69 67 66 65 65 63 62 60 58 57 57 57 58 59 60 60 61 61 61 61 61 60 60 60 59 59 58 58 58 58 57 57 58 58 58 58 57 56 54 52 53 53 52 50 48 47 49 51 53 54 53 51 51 50 51
61 57 51 49 49 46 44 43 41 38 35 39 45 47 49 52 54 56 58 60 61 62 63 64 66 67 67 67 68 68 68 67 66 65 64 63 61 59 58 58 58 59 60 61 62 63 63 64 64 63 62 61 61 60 60 60 60 60 59 58 59 60 61 61 60 59 57 55 52 51 51 50 50 49 48 48 50 52 54 54 52 50 50 51 50
68 65 60 57 56 54 52 52 52 52 51 50 51 52 54 58 59 60 60 60 61 64 67 69 69 68 67 67 67 67 67 66 65 64 62 61 59 59 59 60 61 62 62 64 64 64 64 65 65 64 63 62 61 61 62 62 61 60 60 61 62 63 62 62 62 62 59 55 52 51 51 50 49 48 48 49 50 51 51 51 50 48 48 50 50
71 72 69 65 63 61 58 57 57 59 60 61 63 66 69 71 72 73 73 73 73 74 76 76 73 71 70 70 69 69 68 67 65 64 63 62 62 62 63 64 65 64 64 65 65 65 64 64 64 64 64 64 64 64 64 63 61 61 61 63 65 66 65 64 64 63 61 58 55 55 54 52 51 50 50 49 49 49 49 49 49 48 47 48 49
73 73 73 71 70 69 69 69 68 68 69 71 74 77 81 82 81 81 81 82 81 80 79 76 74 74 75 74 73 73 72 70 69 68 68 68 68 67 67 67 67 66 66 66 66 65 65 64 64 64 65 65 66 66 65 63 63 64 64 66 68 68 67 66 66 65 63 61 59 58 57 55 54 54 53 52 51 51 51 51 51 50 49 49 50
73 73 73 73 73 74 75 76 77 77 78 79 82 84 86 86 84 82 81 81 80 79 78 76 75 76 77 76 75 74 73 72 72 71 71 72 72 71 70 70 69 69 69 70 69 69 68 67 67 68 68 68 69 69 67 66 68 69 70 70 70 69 68 68 67 65 64 63 62 61 61 59 57 56 56 55 55 55 54 54 53 52 52 52 53
72 72 73 73 73 74 75 75 76 77 78 79 80 81 82 82 82 80 79 79 79 78 78 77 77 77 78 78 77 76 75 74 73 73 73 73 73 73 73 73 72 72 72 73 73 73 71 70 70 70 70 71 71 71 71 71 72 72 72 71 70 68 68 67 65 64 63 63 63 63 63 62 61 59 58 58 59 59 59 58 57 57 57 58 58
70 70 71 71 72 73 73 73 74 74 75 76 76 77 79 80 80 80 80 80 80 79 79 79 79 79 79 79 78 77 76 76 75 75 76 76 76 76 76 76 75 74 74 74 73 72 72 72 71 70 70 71 71 72 74 74 72 69 69 68 68 67 66 64 63 62 62 62 62 62 62 62 62 62 61 62 63 63 62 61 61 62 63 63 61
69 70 70 71 72 72 73 73 73 74 74 75 76 77 79 80 81 81 81 81 81 81 80 80 80 80 80 80 79 78 77 76 76 76 77 77 76 77 76 75 73 71 69 68 67 66 68 70 70 69 70 71 71 71 73 73 70 68 68 68 66 64 63 62 62 61 61 61 60 59 59 59 59 60 61 62 63 64 63 62 62 64 65 64 61
71 72 73 73 74 74 75 75 75 75 76 77 79 80 80 81 82 82 82 81 81 80 79 78 77 77 77 76 75 74 73 73 73 73 74 74 74 73 72 71 68 65 64 63 62 62 63 66 67 67 68 69 68 68 69 69 68 67 68 68 65 63 62 61 61 61 61 60 59 59 58 57 57 57 58 59 60 60 60 61 62 63 64 63 61
73 74 74 75 75 75 75 75 76 77 78 79 80 80 80 80 80 80 79 78 77 76 75 74 73 72 72 71 71 70 69 69 69 70 70 70 70 69 68 67 66 65 65 65 64 63 64 65 66 66 66 66 66 66 66 67 67 67 68 68 67 65 64 62 62 62 61 61 60 60 59 58 57 57 58 58 58 58 59 60 61 63 63 62 61
74 75 76 76 76 75 75 75 75 76 76 77 77 77 77 77 77 77 77 76 75 75 74 74 73 72 71 70 70 68 68 67 66 67 67 66 66 66 66 66 66 66 67 67 67 67 67 67 67 66 66 66 66 66 67 67 68 68 69 69 69 69 67 65 64 64 63 62 62 61 60 59 59 59 59 59 59 59 60 61 63 64 64 63 62
75 75 76 76 77 77 76 77 77 77 78 78 78 78 78 78 78 78 78 78 77 77 77 77 76 74 72 71 70 68 68 68 68 67 68 67 66 66 66 66 67 68 69 70 70 69 69 70 70 69 69 69 69 69 68 69 69 70 70 70 71 71 70 68 67 66 66 65 64 63 62 61 61 61 61 61 61 61 62 63 65 65 65 65 65
75 75 76 77 77 77 77 78 78 78 79 79 80 81 81 81 81 81 81 81 81 81 81 81 80 78 76 74 72 71 70 70 70 69 69 69 69 68 68 68 69 70 72 74 73 73 73 73 73 73 73 73 73 72 70 70 70 71 72 72 73 73 73 72 70 69 69 68 67 65 64 63 63 63 62 62 63 64 64 65 65 65 66 66 67
75 75 76 77 77 77 78 79 79 80 80 80 81 81 82 83 83 83 84 84 83 83 83 84 83 82 81 79 78 77 76 75 73 73 73 74 75 74 74 72 72 74 77 77 77 77 77 77 77 77 78 78 77 77 75 73 73 73 74 75 75 75 75 75 74 73 72 70 67 67 66 66 65 65 64 64 64 65 65 66 66 65 65 66 66
77 78 78 79 79 80 80 80 81 81 82 82 83 83 84 84 85 85 86 86 86 86 86 86 86 85 85 83 83 84 83 81 79 79 79 79 79 79 78 76 76 79 82 81 80 80 81 81 81 81 81 81 81 81 80 79 78 77 77 78 78 78 77 77 77 77 75 72 69 68 68 68 67 66 66 66 66 67 67 67 67 66 65 64 65
80 81 81 82 82 82 83 83 84 84 85 85 86 86 87 87 87 88 88 88 89 89 89 89 89 88 87 87 86 87 87 85 83 82 82 81 80 80 79 77 78 82 85 84 83 83 83 84 83 83 83 84 83 83 83 83 82 81 80 81 81 81 80 79 79 78 77 75 73 71 70 69 68 68 68 68 68 68 69 69 69 67 66 65 65
83 84 85 85 85 86 86 87 87 88 88 89 90 90 90 90 90 90 90 91 91 91 90 89 89 88 87 86 86 86 86 85 84 83 82 81 81 80 80 79 79 82 86 86 85 85 86 87 87 87 87 88 87 87 85 84 83 83 83 83 83 83 83 81 81 80 79 77 76 75 73 72 71 70 70 70 70 70 70 70 70 69 67 66 66
87 87 88 88 89 89 90 90 91 91 92 92 92 93 92 92 91 91 90 90 90 89 88 87 87 87 86 85 85 85 85 84 84 83 82 82 81 81 81 80 80 82 85 86 86 87 89 90 90 91 92 92 91 90 88 86 86 85 84 84 84 85 85 84 83 81 80 78 78 77 75 74 73 73 72 71 70 70 70 70 70 69 68 66 65
90 90 91 91 91 92 92 92 92 92 92 92 92 92 91 91 90 90 89 89 89 88 87 86 86 86 86 85 85 85 85 84 83 83 82 82 81 81 80 80 80 82 83 84 85 87 90 91 92 93 94 95 96 94 91 88 87 86 86 85 85 85 85 85 84 82 80 79 78 77 76 76 75 74 73 72 71 71 71 71 70 68 67 66 65
93 94 94 94 94 94 94 95 95 94 93 93 92 92 92 92 91 90 90 90 90 89 88 87 86 86 86 85 84 84 84 84 83 82 81 81 81 80 80 79 80 81 81 82 84 87 89 91 91 92 94 96 98 97 94 89 86 85 84 84 85 84 84 83 82 80 79 78 77 77 76 76 75 74 73 73 72 72 71 70 69 67 66 65 64
96 97 97 97 97 97 97 97 96 96 95 94 93 93 93 93 92 92 91 90 90 90 89 88 87 86 86 85 84 84 83 83 82 81 81 80 80 79 79 79 79 80 80 81 83 85 88 90 91 92 93 95 96 98 97 94 88 83 80 80 81 81 81 80 79 77 76 76 76 75 75 75 74 74 74 73 73 73 71 70 68 66 65 64 63
97 97 97 97 97 97 97 96 95 94 94 93 92 92 91 91 91 91 90 89 89 88 88 87 87 86 85 83 82 81 80 79 79 79 78 78 77 76 76 76 77 78 79 79 80 82 86 89 92 93 93 93 94 96 98 95 91 86 80 77 77 78 79 78 76 75 75 75 75 75 75 75 74 74 74 74 74 73 71 69 67 65 64 64 63
96 96 96 95 95 94 93 92 91 91 91 90 90 89 88 87 87 87 87 87 86 85 84 83 83 82 81 80 78 76 75 74 75 76 75 74 73 72 72 71 72 73 74 74 76 79 84 88 91 92 91 92 93 95 95 94 91 88 82 76 73 73 74 74 74 74 74 74 75 75 75 75 75 75 75 75 74 73 72 70 68 66 66 65 63
93 93 93 92 92 91 90 89 88 88 87 87 86 85 84 83 82 81 81 81 80 80 79 78 77 76 76 76 73 71 69 69 70 71 71 70 69 68 68 68 68 69 69 70 72 76 80 84 86 87 87 88 91 92 93 92 90 86 82 77 72 69 68 69 70 72 73 73 73 74 75 75 75 75 75 75 75 73 71 69 67 66 66 64 62
87 87 88 88 88 87 86 85 85 84 83 82 81 80 79 78 77 76 75 75 74 74 74 73 72 71 71 70 67 66 65 64 64 65 66 65 64 64 64 65 65 65 65 66 69 73 76 78 79 80 81 83 86 88 88 88 86 83 80 77 73 69 67 65 65 65 67 68 69 71 71 72 73 74 74 74 73 70 68 67 66 65 63 61 59
79 79 80 80 80 79 79 78 78 77 77 76 75 74 74 73 72 71 70 69 68 68 68 68 67 67 66 64 62 62 61 60 60 61 61 61 60 60 61 61 62 62 62 63 67 70 72 73 73 75 77 79 81 81 81 81 80 78 75 73 71 69 68 66 63 61 60 61 63 65 67 69 71 72 72 71 69 67 66 65 64 62 60 58 55
72 72 72 72 72 72 71 71 71 70 70 70 69 69 68 68 67 66 65 65 64 63 63 63 63 62 60 59 58 57 57 56 57 58 58 58 58 58 59 59 59 60 60 62 64 67 68 69 71 73 75 76 75 74 74 75 74 72 69 67 66 66 64 62 61 60 59 57 58 60 62 64 66 67 66 66 65 64 63 61 59 58 56 53 50
66 66 66 66 66 65 65 65 65 64 64 64 64 64 63 63 63 62 61 60 60 60 59 58 57 56 55 54 53 53 52 53 54 55 54 54 55 56 57 57 57 58 59 60 62 64 65 67 69 71 72 71 69 68 69 69 67 64 62 61 61 60 58 56 56 57 57 56 55 55 56 58 59 59 59 59 59 59 57 55 54 52 50 48 45
62 62 61 61 61 61 61 60 60 60 60 60 60 60 60 60 59 59 58 57 57 56 55 54 53 51 50 50 50 49 49 51 51 51 51 51 52 53 54 55 55 56 56 58 59 60 62 64 66 67 67 66 64 64 65 63 60 58 57 56 55 54 53 53 53 53 53 53 52 52 52 53 53 53 53 54 54 53 51 49 48 47 45 43 41
58 58 58 57 57 57 57 57 57 57 57 57 57 57 57 57 57 56 56 56 55 54 52 51 49 48 47 47 47 47 47 48 49 48 47 48 49 50 51 52 53 53 52 53 55 57 59 60 62 62 62 62 61 62 61 58 56 54 53 52 51 51 51 51 51 51 50 50 50 50 50 49 49 49 50 50 49 47 45 45 44 42 41 40 38
54 54 54 54 54 54 54 54 55 55 55 55 55 55 55 55 54 54 54 54 53 52 50 49 47 46 45 45 45 44 45 46 46 45 45 46 46 47 48 49 50 49 48 49 51 53 55 57 58 59 58 58 59 59 57 55 53 50 48 49 50 50 50 50 49 49 49 49 49 49 48 47 47 47 47 46 44 43 42 41 41 40 39 38 36
51 51 51 51 51 51 52 52 52 52 53 53 52 52 52 52 52 52 52 52 51 49 48 47 46 45 44 43 42 41 42 43 43 43 43 44 44 44 45 46 46 46 46 46 48 50 53 54 56 56 55 55 56 56 55 52 49 47 47 47 48 47 48 48 47 48 49 50 49 48 46 45 46 46 44 43 42 41 40 40 39 38 37 36 35
49 49 48 48 48 49 49 50 50 50 50 50 50 50 50 49 50 50 49 49 49 48 45 43 43 43 42 41 40 39 39 39 40 41 41 42 42 42 43 43 43 43 44 44 46 48 51 52 52 52 52 53 53 54 53 50 47 46 46 46 44 45 46 46 46 48 50 50 49 48 45 44 45 45 43 41 40 40 39 39 38 36 36 35 34
46 46 46 46 46 46 47 48 48 48 48 48 47 47 46 46 47 47 47 47 47 47 44 40 39 39 39 38 37 36 35 36 37 38 39 39 39 40 40 40 40 41 42 43 44 47 49 50 49 49 49 50 51 52 52 50 46 44 43 42 42 43 44 44 45 48 49 50 50 47 44 43 45 44 42 40 40 39 38 37 36 35 35 34 33
43 43 43 44 44 44 45 46 46 46 46 45 44 44 43 44 44 45 45 44 44 44 42 39 37 36 35 35 34 33 33 33 34 35 36 36 37 37 37 37 38 39 41 42 43 45 46 46 46 46 47 48 49 50 50 46 43 41 40 41 42 42 42 43 46 47 49 50 50 46 42 43 45 44 41 40 39 38 37 36 35 34 34 33 32
41 41 41 42 42 42 43 43 43 43 43 42 42 41 41 42 42 42 42 41 41 41 40 38 35 34 33 32 31 31 30 30 31 32 32 33 33 34 35 35 35 36 38 40 42 43 44 44 43 44 45 46 46 46 44 41 39 39 40 40 41 41 42 44 46 47 50 52 49 44 41 43 44 42 40 39 38 37 37 35 34 34 33 32 31
40 40 40 40 40 40 40 40 40 40 40 40 40 40 40 40 40 40 40 39 37 37 37 35 33 32 31 30 29 29 28 28 29 29 30 31 32 32 33 33 33 34 36 38 40 40 41 41 41 42 42 43 42 39 37 36 36 37 39 40 41 42 43 45 46 49 52 52 46 41 41 43 42 40 39 38 37 37 36 34 33 33 33 32 31
38 38 38 38 38 38 38 38 38 38 38 38 38 38 39 39 39 38 38 37 36 34 33 33 31 30 29 28 28 27 27 27 27 28 29 30 30 31 31 31 31 32 34 35 37 38 38 39 40 41 40 39 37 35 34 34 35 36 39 41 42 43 44 46 48 51 52 47 40 38 41 42 41 39 38 38 37 36 35 34 33 33 32 31 31
36 36 36 36 36 36 36 36 36 36 36 36 36 37 37 37 38 38 37 36 35 33 31 31 30 29 27 27 26 26 25 25 26 26 27 27 28 29 30 30 30 31 32 33 34 36 38 38 38 38 37 36 35 34 34 35 37 39 41 43 44 45 47 48 50 50 45 38 35 37 40 40 39 38 38 37 37 36 35 33 33 33 32 32 31
34 34 34 34 34 34 34 34 34 34 34 34 35 35 35 36 36 37 36 35 35 33 31 30 29 28 27 26 26 25 25 24 25 25 25 26 26 27 28 29 30 30 31 32 33 35 36 36 36 35 35 36 37 37 38 39 41 43 44 45 46 47 49 49 47 41 35 31 32 35 37 37 38 38 38 37 36 35 34 33 33 33 32 32 31
Wind_Direction
260 263 266 270 271 272 273 273 273 274 274 274 274 274 273 272 271 271 271 271 271 271 271 272 272 273 274 275 275 276 277 278 278 279 280 280 281 282 282 282 282 282 282 283 285 287 288 289 290 291 292 294 295 296 297 296 296 297 298 299 298 296 293 289 286 283 280 277 275 275 275 275 275 276 277 277 276 275 273 271 270 269 268 268 267
264 268 271 274 275 275 274 272 272 272 272 272 272 272 272 272 272 273 274 274 274 273 273 273 273 274 275 276 277 278 278 279 280 280 280 281 281 282 282 283 283 283 284 285 286 287 288 289 290 290 291 293 294 295 296 296 297 298 298 298 298 297 296 295 294 291 287 281 276 274 274 274 275 275 276 276 277 277 275 273 271 270 269 268 268
267 271 274 276 276 275 274 273 273 273 272 272 272 272 271 271 272 273 274 274 274 275 275 275 275 275 275 276 276 276 277 277 278 278 279 280 281 282 282 283 284 285 285 286 286 286 287 287 288 289 290 292 293 293 294 295 296 297 297 297 296 296 296 297 297 296 294 291 287 282 279 278 278 276 275 274 275 276 276 275 273 272 270 269 268
274 276 276 276 275 274 273 273 272 271 271 272 273 274 274 274 273 273 273 273 274 274 274 274 275 275 275 275 275 276 276 276 276 276 277 277 278 279 280 281 283 284 285 285 285 285 285 286 287 288 289 291 291 291 291 292 293 294 294 294 293 293 294 295 296 296 295 295 293 291 288 286 284 281 278 276 274 274 275 274 274 273 272 270 269
281 282 280 278 275 273 272 271 270 269 270 271 273 274 275 275 275 274 274 274 274 275 275 274 274 275 275 275 275 275 275 275 276 276 276 276 277 277 278 279 280 281 282 283 283 283 284 286 287 288 289 289 289 289 289 289 290 291 291 291 291 291 292 293 293 293 294 294 293 293 292 289 288 287 287 286 279 273 274 275 275 274 273 272 272
275 279 285 288 287 282 277 273 271 270 271 272 273 273 273 273 273 273 273 274 274 275 276 276 276 277 277 277 278 278 279 279 279 279 280 280 280 280 280 281 281 282 283 283 284 285 286 287 288 288 288 288 288 288 288 288 288 289 289 290 289 290 291 291 291 291 292 292 292 292 291 290 288 286 289 292 286 275 274 275 275 275 275 274 274
268 264 273 293 299 295 288 281 275 272 272 273 274 273 272 271 271 270 271 271 272 273 274 275 276 277 277 278 279 280 281 282 283 283 283 284 284 284 285 285 285 285 286 286 286 287 288 288 288 288 288 288 288 288 287 287 287 287 288 288 289 290 290 290 289 289 290 290 289 289 289 289 287 285 287 290 285 276 272 272 275 277 276 274 274
268 260 254 259 275 286 291 292 286 279 276 275 275 273 271 269 268 268 268 269 270 272 273 274 275 276 276 277 277 279 280 281 282 283 283 283 284 284 284 285 284 284 285 285 285 286 286 286 286 287 287 287 287 287 287 286 286 286 286 287 288 289 289 289 288 288 288 288 287 287 287 286 285 285 286 284 279 272 268 273 280 282 278 275 273
267 265 260 254 252 261 275 286 288 286 283 280 278 274 270 267 266 266 267 267 268 270 272 273 274 275 276 276 278 279 281 282 282 282 282 281 281 282 282 282 282 282 282 282 283 283 284 284 285 286 286 286 286 286 286 286 285 285 285 286 287 287 288 288 288 288 288 287 287 286 285 283 283 284 284 279 271 267 269 276 283 283 280 278 275
263 265 263 259 254 253 256 265 278 286 285 280 276 273 270 267 265 265 266 267 268 269 271 273 275 276 276 277 278 280 281 281 281 281 282 282 282 282 281 281 280 280 280 280 281 281 282 282 283 284 285 285 285 285 285 284 284 284 285 287 287 287 286 286 287 288 287 287 286 284 283 283 282 283 281 275 269 269 275 281 284 283 281 280 278
259 259 256 253 251 245 241 246 256 267 279 279 274 271 270 268 266 265 265 266 268 270 272 274 276 278 279 280 280 280 280 280 280 281 282 282 283 282 280 278 278 278 280 281 281 281 282 282 283 283 284 284 284 284 283 283 284 285 286 286 286 286 286 285 285 286 286 286 285 283 281 281 281 280 278 273 269 272 277 281 282 281 279 277 277
256 254 249 246 244 239 238 244 246 246 255 266 268 267 267 266 266 266 266 266 268 270 273 277 279 280 280 280 280 280 280 280 280 280 281 281 280 279 278 278 279 281 282 282 282 282 283 284 284 284 284 284 283 283 282 283 284 285 285 284 284 284 285 285 286 287 286 285 284 283 281 280 279 278 275 272 271 273 275 278 278 277 275 274 273
252 251 247 242 240 239 241 245 246 244 244 250 257 263 264 264 265 266 267 268 270 273 276 279 280 280 279 278 278 278 279 279 279 279 278 277 277 277 278 279 281 282 282 282 282 283 284 285 285 285 284 283 282 282 282 283 284 284 283 283 284 285 285 286 287 289 289 286 285 286 285 283 281 278 275 274 274 275 275 276 275 274 272 270 269
251 251 249 244 240 239 241 243 245 245 245 247 253 260 264 265 266 267 268 270 273 275 278 279 279 277 276 276 276 277 277 277 277 277 276 275 275 276 277 278 279 280 280 280 281 282 283 284 284 283 283 283 282 282 282 282 282 282 282 283 285 286 286 287 288 289 289 288 288 288 288 287 285 283 281 280 279 279 279 278 277 276 273 271 268
253 252 252 250 245 242 242 243 245 247 249 250 254 258 262 265 268 269 270 272 274 275 276 276 276 276 275 274 275 276 276 275 275 275 274 274 274 275 275 276 276 277 276 277 278 279 280 281 280 279 279 280 281 281 281 281 281 280 281 282 284 284 286 287 287 288 288 289 290 290 290 289 287 286 285 285 284 284 283 282 281 280 278 275 272
254 254 254 253 252 250 248 249 250 252 253 255 256 259 263 266 268 270 271 272 273 273 273 273 274 273 273 273 273 273 273 273 274 274 274 274 275 275 275 274 274 274 274 274 275 276 277 277 276 276 276 276 277 278 278 278 278 279 279 280 281 282 284 285 285 286 287 288 290 291 290 289 288 287 286 286 286 286 285 284 284 283 281 280 277
254 254 254 254 254 254 254 255 255 256 257 259 260 262 265 267 268 269 270 270 270 270 271 271 270 270 271 272 272 272 273 273 274 274 274 274 274 274 274 274 274 274 274 274 275 275 275 274 273 273 273 274 274 275 276 276 276 277 278 279 280 281 283 284 284 284 285 287 288 289 288 288 287 287 287 287 287 287 286 286 285 285 284 282 280
256 256 256 255 255 256 257 257 258 259 260 261 263 264 265 266 267 268 268 269 269 270 270 270 270 270 271 271 272 272 273 273 274 274 274 273 273 274 274 274 275 275 275 275 274 274 273 273 272 272 272 272 273 275 276 276 277 277 277 277 279 280 281 282 283 283 284 285 285 285 284 284 285 285 286 285 285 285 284 284 284 284 282 281 280
256 256 256 256 256 256 257 258 259 260 261 262 262 263 264 265 266 267 268 268 269 270 270 271 271 271 271 271 272 272 272 272 273 272 272 273 273 274 274 275 275 275 275 274 273 272 272 272 273 274 274 274 275 276 276 277 277 277 277 277 278 279 279 280 280 282 282 282 282 282 281 282 282 282 282 281 281 282 283 283 283 282 281 281 281
258 258 257 256 256 256 256 257 258 259 259 260 261 262 263 264 265 266 267 268 269 269 270 270 270 271 271 271 271 271 270 270 270 271 271 272 273 273 274 274 274 274 274 273 272 271 271 271 272 273 273 274 275 275 274 275 276 276 277 278 278 278 278 278 279 279 280 280 280 280 280 281 281 281 280 280 280 281 282 283 282 282 282 282 282
265 264 263 263 262 261 260 260 260 260 260 260 261 262 263 264 265 266 267 268 268 268 268 269 269 270 271 271 271 271 269 268 269 269 270 271 272 273 274 274 275 275 275 274 273 272 271 270 270 270 271 272 272 273 273 274 275 275 276 277 278 278 278 278 278 278 278 279 280 280 281 281 281 281 281 282 282 283 283 282 281 281 281 282 283
268 268 269 269 269 269 269 268 268 267 267 267 268 268 268 269 269 270 270 270 270 269 269 269 269 269 269 271 272 272 272 271 271 271 272 272 273 274 275 275 276 276 276 275 275 274 274 273 272 271 270 270 271 272 272 273 274 274 275 277 278 278 278 278 278 278 279 279 280 281 281 282 282 282 282 282 282 282 281 281 280 281 282 283 283
267 268 269 270 270 271 272 272 272 273 273 273 274 274 274 274 274 274 274 274 274 274 273 273 272 271 271 271 271 272 272 273 273 273 274 273 273 273 274 274 275 275 275 275 275 275 275 275 274 273 272 272 271 271 271 272 274 275 276 276 277 278 279 279 279 279 279 279 280 280 281 281 281 281 281 281 281 280 280 280 280 281 282 282 282
267 268 269 269 270 271 271 272 272 273 273 274 275 275 276 276 276 276 277 277 277 277 277 276 276 276 275 275 274 273 273 273 273 274 275 275 275 274 273 273 274 274 274 274 274 275 275 275 275 275 275 274 273 273 272 273 274 276 277 277 278 279 279 279 279 279 279 279 280 281 281 281 280 280 280 280 280 279 279 279 279 280 281 281 281
270 270 270 271 271 272 272 272 273 273 273 274 274 274 275 275 276 276 276 276 276 276 276 277 277 278 278 278 278 277 276 275 275 276 276 276 276 275 274 274 274 274 273 272 272 273 273 273 274 275 275 275 276 276 276 275 275 276 277 278 278 279 280 281 281 280 280 280 280 281 281 281 281 281 281 282 281 281 281 281 281 281 281 282 283
271 271 272 272 272 273 273 274 274 274 275 275 275 275 275 275 275 275 275 276 276 276 276 276 276 277 277 277 276 276 276 276 275 275 274 274 273 273 273 273 273 272 271 270 271 271 272 272 272 273 273 274 274 275 275 276 276 276 277 277 278 278 279 280 281 281 281 282 282 281 281 282 283 284 284 284 284 284 284 284 284 284 284 285 286
271 272 272 272 273 273 274 274 275 275 275 275 275 275 275 275 275 275 275 275 275 275 275 274 274 274 274 274 274 274 274 274 273 272 272 272 271 271 271 272 272 272 272 272 271 271 271 271 270 270 270 270 270 270 271 272 274 274 275 275 276 277 278 279 279 280 282 283 283 283 284 284 285 286 286 286 286 286 286 286 287 288 288 288 289
271 272 273 273 274 274 275 275 275 275 275 275 275 275 275 275 275 274 274 274 274 273 273 273 273 273 272 272 272 272 272 272 272 271 271 271 270 270 270 270 270 272 273 273 273 272 272 271 271 270 269 269 268 268 269 269 270 271 272 273 275 276 277 278 279 280 281 282 283 284 285 286 286 286 286 286 286 286 287 288 289 290 290 290 290
271 271 272 272 273 273 274 274 274 274 274 274 274 274 274 275 275 275 275 274 274 274 274 274 274 274 274 273 273 273 272 272 272 271 270 270 269 268 268 267 267 268 269 270 271 272 272 271 271 270 270 270 269 269 268 268 269 269 270 271 272 273 275 276 277 279 280 281 283 284 285 285 285 285 285 286 286 287 288 289 289 289 290 290 291
271 272 272 272 273 273 273 274 274 274 274 274 275 275 276 276 276 276 276 277 277 276 276 276 276 275 275 274 274 273 273 272 272 271 270 269 268 267 266 266 265 264 265 266 268 268 269 269 270 271 271 271 271 270 269 268 268 269 269 270 270 271 273 274 276 277 279 280 281 282 283 283 284 284 285 286 287 288 288 288 288 289 290 291 291
273 273 274 274 275 275 275 276 276 276 276 277 277 278 278 278 278 278 278 278 278 278 278 277 276 276 275 275 274 274 273 273 272 271 271 270 268 267 266 265 264 263 262 263 263 264 265 266 267 268 270 271 272 273 272 270 268 267 267 268 270 271 272 273 275 276 277 279 279 280 281 282 282 284 285 285 286 287 287 287 288 288 289 290 291
271 272 273 273 274 274 275 275 275 276 276 277 277 277 277 278 278 278 278 278 278 278 278 277 277 276 276 275 274 274 274 273 273 272 271 270 269 267 266 265 263 262 261 260 260 261 262 264 264 265 266 267 270 272 274 274 273 271 269 268 269 271 272 273 274 276 277 278 278 279 280 281 282 283 284 284 285 286 286 287 287 289 290 291 291
270 271 271 271 272 272 273 273 274 274 275 275 275 275 276 276 276 276 277 277 277 277 277 277 276 276 276 275 274 274 274 274 273 272 271 270 269 267 266 265 263 262 261 260 259 259 259 260 261 262 263 264 266 268 271 274 276 277 275 271 269 270 271 272 274 275 276 277 278 279 280 281 282 282 283 284 285 286 286 287 288 290 291 292 292
270 270 271 271 271 272 272 272 273 273 274 274 275 275 275 275 275 276 276 277 277 276 276 276 276 276 276 275 274 274 274 273 272 271 270 269 268 267 266 265 263 262 261 260 259 257 257 257 258 259 261 262 264 265 268 270 273 276 277 276 273 270 270 272 273 274 275 276 277 278 278 279 280 281 282 283 284 285 286 287 289 291 291 292 292
269 269 270 271 271 272 273 273 274 274 274 275 275 276 276 276 276 276 276 276 276 276 276 276 275 275 275 274 274 273 272 271 270 269 269 268 267 266 265 263 261 260 259 258 257 257 257 257 258 259 260 261 262 263 265 267 269 272 275 277 278 276 274 273 272 272 272 273 274 275 276 278 279 280 280 281 282 283 285 287 289 290 290 291 292
267 268 269 270 270 271 272 273 274 274 275 275 276 276 276 276 276 276 276 275 275 275 276 276 276 275 274 274 274 273 272 270 269 268 268 267 266 264 263 262 260 259 257 256 255 255 256 257 259 260 260 260 261 262 263 265 268 270 272 275 277 279 278 276 274 272 272 272 273 275 276 276 277 277 278 279 280 282 284 286 287 288 289 291 293
268 268 269 270 271 271 272 273 274 274 275 275 275 276 276 276 276 276 275 275 275 275 275 275 275 275 275 275 274 274 273 271 270 268 267 266 265 263 261 260 259 257 255 254 253 254 255 256 257 258 259 259 261 262 264 265 268 270 272 273 275 276 276 277 277 278 277 276 276 276 275 275 275 275 277 278 280 282 283 284 285 287 289 291 292
270 270 270 271 271 272 273 273 273 274 274 275 275 275 275 275 275 276 276 276 276 276 275 275 275 275 275 275 275 274 272 271 269 267 265 264 262 261 260 258 257 256 254 253 252 253 254 254 254 255 257 258 260 262 263 265 267 269 271 273 274 274 275 277 278 280 280 279 276 274 273 273 273 274 276 277 279 280 281 283 285 287 288 289 290
271 272 272 272 273 273 273 273 274 274 274 274 275 275 276 276 277 277 277 277 277 276 276 276 276 277 277 276 275 273 271 269 267 265 264 262 261 260 259 258 256 255 254 253 252 252 252 253 254 255 257 259 261 262 263 264 267 269 271 272 273 275 277 277 276 276 277 276 275 274 273 273 273 274 275 276 277 279 281 283 285 285 286 286 287
272 272 273 273 273 274 274 274 274 274 275 275 276 277 277 278 279 279 280 280 279 278 278 278 278 278 278 276 275 272 270 268 267 265 264 262 261 260 259 258 257 255 254 254 254 254 254 254 255 257 259 261 263 263 263 265 267 268 270 272 273 274 274 274 273 273 273 274 275 274 273 273 273 274 275 276 277 279 281 282 282 282 282 283 283
272 273 273 274 274 275 275 276 276 276 277 277 278 279 279 280 281 281 282 281 281 281 281 280 280 279 278 276 274 273 271 270 268 267 265 263 261 260 259 258 258 257 256 255 256 256 256 257 258 258 260 261 262 262 264 266 267 267 268 269 270 271 270 270 271 272 272 272 272 271 271 272 273 273 273 274 276 278 278 278 279 280 280 281 281
273 274 275 275 276 276 277 277 277 277 278 279 279 280 281 281 282 282 282 282 282 282 282 282 282 281 279 277 275 273 272 270 269 267 265 263 261 260 259 258 258 257 256 255 255 255 256 257 258 259 260 261 262 263 265 266 266 267 267 266 266 267 268 268 269 270 270 269 269 269 270 271 271 271 272 273 275 275 275 276 276 277 278 279 279
275 275 276 276 276 276 277 277 277 278 278 279 280 281 282 282 283 283 282 282 282 282 283 283 283 281 279 277 276 274 272 270 269 267 265 263 261 260 259 258 258 257 256 254 253 253 254 255 256 257 259 260 261 262 264 264 264 264 263 262 263 263 264 265 266 266 266 266 267 268 269 269 269 270 271 272 273 273 274 274 275 275 276 276 277
275 275 275 275 275 276 276 276 277 278 279 280 281 281 282 282 282 282 282 282 282 283 283 282 282 281 279 278 276 274 271 270 268 267 265 263 261 260 259 257 257 256 255 253 252 252 253 254 255 256 257 258 259 260 262 262 261 259 258 259 260 260 261 262 262 262 263 264 265 266 267 268 268 269 270 270 271 271 272 272 273 273 274 274 274
274 274 275 275 275 275 276 277 278 279 279 280 281 281 281 281 281 281 281 282 282 283 283 282 281 279 278 277 276 273 271 269 267 265 264 262 261 259 258 257 256 254 254 252 251 251 251 252 253 253 253 254 255 257 258 258 257 256 256 256 256 256 256 257 257 259 261 262 263 264 265 266 266 267 268 269 269 270 270 270 271 271 271 271 272
274 274 274 275 275 275 276 277 278 278 279 279 280 279 279 279 279 280 281 281 282 283 283 283 281 279 278 277 275 274 271 269 267 265 263 262 261 259 258 256 254 253 253 252 251 251 251 252 252 252 252 252 252 253 255 256 256 255 253 252 251 251 251 252 253 256 258 259 260 262 263 263 264 265 266 267 267 267 268 268 269 269 269 269 269
273 273 274 274 275 275 276 277 277 278 278 278 278 278 278 278 279 279 280 281 282 283 283 284 283 281 279 277 275 274 272 270 268 267 265 262 260 257 255 253 251 250 250 250 251 251 251 252 252 251 251 251 251 252 254 255 254 252 249 247 246 246 247 248 250 253 254 256 258 260 260 260 261 263 264 264 264 265 265 266 266 266 266 266 266
273 273 273 273 274 275 275 276 276 277 277 277 277 277 278 278 278 279 279 280 280 281 282 282 282 281 280 279 277 275 273 271 268 266 263 260 258 256 254 252 249 248 248 249 249 250 251 252 252 251 250 250 250 251 251 250 249 247 244 243 242 242 243 245 247 249 252 256 258 257 256 257 259 261 261 261 262 262 263 264 264 263 263 263 263
272 272 273 273 274 275 275 276 276 276 276 277 277 278 279 280 280 280 280 281 280 280 281 281 281 281 280 280 278 276 274 271 268 265 262 260 258 257 255 253 250 247 246 247 248 248 248 248 248 247 247 247 247 246 244 242 241 239 238 238 238 238 240 242 244 248 252 257 258 255 254 256 257 258 258 259 260 260 261 261 261 260 260 261 261
272 273 274 275 275 275 276 276 275 275 276 276 278 279 280 281 282 282 283 283 283 283 283 283 283 282 281 280 279 277 274 271 268 265 263 261 259 257 255 253 250 248 246 245 246 246 246 245 245 245 244 242 240 238 235 233 232 232 232 233 234 235 237 240 244 249 255 259 257 253 253 255 255 255 256 257 257 258 258 258 258 258 258 258 258
273 274 275 276 277 277 277 276 276 275 276 277 279 280 281 282 283 284 285 285 286 286 286 286 285 285 283 282 280 277 274 271 268 265 263 261 259 257 255 253 250 248 246 245 244 245 245 245 244 243 241 238 235 232 230 229 228 229 230 231 233 235 238 243 248 253 257 256 253 251 252 252 252 253 254 254 255 256 256 255 255 255 255 256 256
Height
10614 10614 10613 10612 10611 10610 10610 10608 10608 10608 10608 10608 10608 10607 10607 10607 10607 10607 10607 10607 10608 10608 10608 10607 10607 10607 10606 10605 10605 10604 10604 10604 10604 10604 10604 10604 10604 10604 10605 10605 10605 10605 10605 10605 10604 10603 10602 10601 10599 10598 10597 10596 10596 10596 10595 10594 10594 10593 10593 10591 10589 10588 10589 10588 10588 10588 10587 10586 10585 10584 10584 10583 10582 10582 10580 10579 10579 10580 10579 10578 10578 10578 10579 10579 10578
10608 10608 10608 10607 10606 10605 10604 10603 10603 10602 10602 10602 10602 10601 10601 10601 10601 10601 10601 10601 10601 10601 10601 10601 10601 10601 10600 10599 10598 10597 10597 10596 10596 10596 10596 10596 10597 10597 10598 10598 10598 10598 10598 10598 10597 10596 10595 10593 10592 10591 10590 10590 10589 10589 10587 10586 10586 10586 10586 10584 10582 10581 10581 10581 10582 10582 10581 10580 10579 10579 10578 10577 10576 10576 10575 10573 10572 10572 10572 10571 10571 10571 10572 10571 10571
10603 10602 10602 10601 10601 10600 10598 10597 10597 10596 10596 10595 10595 10595 10596 10595 10595 10595 10594 10594 10594 10594 10594 10594 10593 10593 10593 10592 10591 10591 10590 10590 10589 10589 10589 10589 10589 10589 10590 10590 10590 10591 10591 10591 10590 10589 10588 10587 10585 10584 10583 10583 10583 10582 10579 10578 10578 10579 10578 10578 10576 10574 10574 10573 10574 10575 10574 10572 10572 10572 10572 10570 10568 10568 10568 10567 10565 10565 10565 10564 10564 10564 10564 10564 10564
10597 10596 10596 10596 10595 10594 10593 10592 10591 10590 10589 10589 10589 10589 10589 10589 10589 10589 10588 10588 10588 10588 10587 10587 10587 10586 10586 10585 10584 10584 10584 10583 10583 10583 10583 10583 10583 10583 10583 10584 10583 10583 10584 10584 10583 10582 10581 10580 10579 10578 10577 10577 10576 10575 10573 10571 10571 10571 10571 10570 10570 10569 10568 10566 10566 10566 10567 10566 10565 10565 10566 10565 10562 10560 10560 10560 10559 10558 10558 10558 10557 10556 10556 10556 10556
10592 10590 10589 10589 10588 10587 10586 10585 10584 10584 10583 10583 10583 10583 10582 10582 10582 10582 10581 10581 10581 10581 10580 10580 10579 10579 10578 10578 10577 10577 10577 10576 10576 10576 10576 10576 10577 10578 10578 10578 10578 10577 10577 10577 10576 10575 10574 10574 10572 10571 10570 10569 10569 10568 10567 10565 10564 10564 10563 10562 10562 10563 10563 10561 10559 10558 10559 10559 10558 10558 10559 10559 10557 10554 10553 10553 10553 10552 10552 10552 10551 10550 10549 10548 10548
10589 10588 10585 10581 10579 10578 10577 10577 10576 10576 10577 10576 10576 10576 10576 10576 10575 10575 10575 10575 10575 10574 10573 10573 10572 10571 10570 10569 10569 10569 10568 10568 10568 10569 10569 10569 10570 10571 10571 10572 10572 10570 10570 10569 10568 10567 10567 10567 10566 10564 10563 10562 10561 10561 10561 10559 10558 10557 10556 10554 10553 10555 10557 10556 10553 10551 10551 10551 10550 10550 10550 10551 10551 10549 10547 10546 10545 10545 10546 10546 10545 10544 10543 10542 10542
10583 10583 10582 10578 10575 10571 10569 10568 10568 10568 10569 10569 10569 10569 10569 10569 10569 10569 10569 10569 10568 10567 10567 10566 10566 10565 10564 10563 10562 10562 10562 10561 10561 10561 10561 10561 10561 10563 10563 10564 10563 10562 10561 10560 10560 10560 10560 10558 10558 10558 10557 10555 10554 10554 10554 10553 10552 10551 10550 10549 10546 10546 10548 10550 10548 10545 10545 10545 10544 10543 10542 10542 10543 10543 10542 10540 10539 10538 10539 10540 10539 10538 10538 10537 10536
10574 10574 10575 10574 10572 10567 10563 10561 10561 10561 10562 10562 10561 10562 10562 10562 10562 10562 10563 10563 10562 10561 10561 10560 10560 10559 10559 10558 10557 10556 10556 10556 10555 10555 10555 10554 10553 10554 10555 10556 10555 10554 10554 10553 10553 10554 10553 10551 10550 10551 10550 10549 10548 10547 10546 10547 10546 10545 10544 10543 10541 10538 10538 10540 10541 10540 10538 10538 10538 10537 10536 10535 10536 10536 10536 10535 10533 10532 10532 10532 10532 10531 10531 10530 10530
10566 10566 10567 10567 10565 10562 10558 10556 10555 10555 10555 10555 10554 10554 10554 10555 10555 10556 10556 10556 10556 10556 10555 10554 10554 10554 10553 10553 10551 10550 10550 10550 10549 10548 10547 10547 10546 10546 10547 10548 10548 10547 10548 10547 10547 10546 10545 10544 10543 10543 10542 10542 10541 10540 10539 10539 10539 10538 10537 10536 10536 10534 10531 10530 10532 10532 10531 10530 10531 10530 10529 10528 10529 10529 10528 10527 10527 10526 10526 10525 10525 10524 10523 10522 10522
10560 10560 10560 10560 10559 10557 10554 10551 10549 10549 10548 10546 10545 10545 10545 10546 10548 10549 10549 10549 10549 10549 10549 10548 10547 10547 10547 10546 10545 10544 10544 10543 10542 10540 10538 10539 10539 10540 10540 10540 10540 10540 10539 10539 10539 10538 10537 10536 10536 10535 10535 10535 10534 10534 10532 10531 10531 10530 10530 10529 10528 10527 10526 10523 10522 10523 10523 10523 10524 10523 10521 10521 10521 10522 10522 10520 10519 10519 10518 10517 10517 10516 10515 10514 10512
10554 10554 10554 10553 10553 10552 10549 10545 10544 10545 10543 10539 10536 10537 10538 10539 10541 10541 10542 10542 10542 10542 10542 10541 10541 10540 10539 10538 10537 10537 10537 10535 10534 10533 10533 10532 10533 10533 10532 10532 10531 10531 10530 10529 10529 10528 10527 10528 10528 10528 10528 10527 10527 10526 10525 10523 10522 10522 10521 10521 10519 10519 10518 10517 10516 10516 10515 10515 10516 10516 10515 10514 10514 10515 10515 10513 10512 10511 10511 10510 10510 10509 10508 10507 10505
10546 10547 10546 10545 10545 10544 10542 10540 10539 10540 10539 10534 10529 10529 10531 10532 10534 10535 10535 10536 10536 10535 10535 10535 10534 10533 10532 10531 10530 10529 10529 10528 10527 10527 10528 10527 10526 10525 10524 10523 10523 10523 10522 10520 10519 10519 10518 10518 10518 10519 10519 10519 10519 10518 10517 10515 10514 10513 10513 10512 10511 10510 10510 10509 10508 10508 10508 10508 10509 10509 10508 10508 10508 10509 10508 10507 10506 10505 10504 10504 10503 10502 10501 10500 10499
10536 10536 10537 10537 10536 10535 10535 10534 10533 10533 10532 10528 10524 10523 10524 10525 10527 10528 10528 10529 10529 10529 10529 10528 10527 10526 10525 10524 10523 10522 10522 10521 10521 10521 10521 10521 10520 10519 10517 10516 10515 10515 10514 10512 10511 10511 10510 10509 10508 10508 10509 10509 10510 10510 10508 10507 10506 10505 10504 10503 10502 10501 10501 10500 10499 10498 10499 10500 10501 10500 10500 10500 10501 10501 10501 10500 10500 10499 10498 10497 10495 10495 10494 10493 10493
10525 10525 10527 10529 10529 10529 10528 10527 10526 10525 10524 10522 10519 10517 10516 10517 10519 10520 10521 10522 10523 10523 10522 10520 10520 10519 10518 10517 10516 10515 10515 10515 10515 10515 10514 10514 10514 10513 10511 10509 10508 10507 10507 10505 10504 10503 10502 10500 10499 10498 10498 10498 10500 10500 10498 10497 10498 10497 10495 10494 10492 10491 10491 10491 10490 10489 10488 10490 10491 10491 10491 10491 10491 10491 10491 10491 10491 10490 10489 10488 10487 10486 10486 10485 10485
10516 10517 10518 10520 10521 10521 10520 10518 10517 10517 10517 10515 10512 10509 10508 10509 10511 10512 10514 10515 10516 10515 10514 10512 10512 10511 10510 10509 10509 10508 10508 10508 10507 10507 10506 10505 10505 10505 10505 10503 10502 10501 10499 10498 10498 10497 10495 10493 10492 10490 10489 10489 10489 10488 10488 10487 10488 10488 10487 10486 10484 10483 10482 10482 10481 10480 10479 10480 10481 10481 10481 10481 10481 10481 10481 10481 10481 10481 10480 10479 10478 10477 10478 10477 10476
10508 10508 10509 10510 10510 10510 10510 10509 10509 10509 10509 10506 10504 10502 10502 10502 10504 10505 10506 10506 10506 10505 10504 10503 10502 10501 10500 10501 10501 10500 10500 10499 10498 10498 10497 10496 10495 10495 10496 10496 10495 10494 10492 10490 10491 10490 10489 10488 10485 10482 10481 10481 10479 10478 10479 10478 10478 10478 10479 10478 10476 10476 10476 10474 10473 10472 10471 10471 10472 10471 10471 10471 10472 10472 10472 10471 10472 10471 10470 10469 10468 10468 10469 10467 10465
10499 10500 10500 10500 10500 10500 10499 10500 10500 10500 10499 10498 10497 10496 10495 10495 10495 10496 10496 10496 10496 10495 10494 10493 10492 10492 10491 10491 10491 10491 10490 10489 10489 10488 10487 10486 10486 10486 10486 10486 10486 10486 10484 10482 10481 10481 10480 10479 10478 10476 10474 10473 10471 10470 10469 10469 10469 10469 10469 10468 10468 10468 10468 10467 10466 10465 10464 10464 10464 10463 10463 10462 10462 10462 10462 10462 10462 10460 10459 10459 10459 10459 10459 10457 10456
10490 10490 10490 10491 10491 10491 10490 10490 10490 10489 10490 10489 10489 10488 10487 10485 10485 10486 10486 10486 10485 10485 10485 10483 10482 10481 10481 10481 10481 10482 10481 10479 10479 10478 10476 10476 10476 10475 10475 10476 10476 10476 10475 10474 10472 10471 10469 10468 10467 10468 10466 10464 10464 10463 10459 10458 10460 10461 10461 10460 10460 10461 10460 10459 10459 10458 10458 10457 10457 10456 10456 10454 10454 10454 10454 10453 10453 10451 10451 10451 10451 10450 10449 10447 10447
10479 10479 10479 10480 10481 10481 10481 10480 10480 10480 10480 10480 10479 10478 10477 10475 10475 10475 10476 10476 10475 10475 10475 10474 10472 10471 10470 10470 10471 10472 10471 10470 10469 10468 10466 10465 10465 10465 10464 10465 10466 10466 10466 10464 10462 10461 10459 10458 10457 10458 10457 10455 10456 10455 10450 10449 10452 10452 10451 10451 10452 10453 10453 10452 10451 10451 10451 10450 10450 10449 10448 10448 10447 10446 10446 10445 10444 10443 10442 10443 10443 10441 10438 10437 10437
10467 10467 10468 10469 10470 10470 10471 10471 10471 10470 10470 10469 10468 10467 10467 10466 10465 10466 10467 10467 10467 10467 10465 10465 10464 10462 10460 10459 10460 10460 10461 10460 10459 10457 10455 10455 10454 10454 10454 10454 10455 10456 10455 10454 10453 10452 10451 10449 10448 10449 10448 10447 10447 10446 10443 10442 10444 10444 10441 10441 10442 10444 10445 10444 10444 10444 10443 10442 10442 10441 10441 10440 10440 10439 10438 10436 10435 10435 10435 10434 10433 10431 10428 10427 10427
10455 10455 10455 10456 10457 10458 10459 10460 10460 10459 10458 10458 10458 10458 10458 10457 10456 10456 10456 10457 10457 10457 10455 10454 10454 10453 10451 10449 10448 10449 10449 10450 10449 10447 10446 10445 10444 10444 10444 10444 10444 10444 10443 10443 10443 10443 10441 10440 10439 10440 10440 10438 10438 10437 10435 10434 10435 10435 10433 10432 10433 10434 10435 10436 10436 10435 10434 10434 10433 10433 10433 10433 10432 10430 10429 10428 10427 10427 10426 10425 10423 10421 10419 10418 10418
10444 10444 10443 10444 10444 10445 10446 10447 10447 10446 10446 10446 10446 10446 10445 10445 10444 10443 10442 10443 10443 10444 10443 10442 10442 10442 10442 10440 10439 10439 10438 10438 10439 10438 10436 10436 10435 10434 10433 10434 10433 10432 10431 10431 10431 10432 10431 10430 10430 10430 10430 10429 10428 10427 10426 10425 10425 10424 10424 10424 10423 10424 10425 10427 10426 10425 10425 10425 10424 10424 10424 10424 10423 10422 10420 10420 10419 10418 10417 10415 10413 10411 10410 10409 10409
10434 10434 10434 10434 10434 10434 10435 10435 10434 10434 10433 10433 10432 10432 10431 10430 10430 10429 10428 10428 10429 10428 10428 10427 10427 10429 10430 10431 10431 10431 10430 10428 10428 10427 10425 10424 10424 10424 10424 10424 10423 10422 10419 10418 10419 10420 10420 10419 10419 10419 10418 10418 10417 10417 10416 10415 10414 10414 10414 10414 10413 10413 10414 10416 10416 10416 10415 10415 10415 10416 10416 10415 10415 10414 10413 10412 10411 10409 10408 10406 10404 10402 10401 10399 10398
10425 10425 10425 10424 10424 10424 10424 10424 10423 10423 10422 10421 10420 10419 10418 10417 10416 10415 10415 10415 10415 10414 10414 10412 10412 10414 10416 10418 10419 10419 10419 10418 10417 10416 10415 10413 10412 10413 10414 10414 10414 10412 10409 10407 10407 10408 10408 10408 10408 10408 10407 10406 10406 10406 10407 10407 10406 10405 10404 10403 10403 10403 10402 10403 10405 10406 10405 10405 10406 10406 10407 10406 10405 10405 10405 10404 10402 10400 10399 10397 10396 10395 10393 10390 10389
10415 10414 10414 10413 10414 10413 10413 10412 10412 10411 10411 10410 10410 10409 10407 10406 10405 10403 10402 10402 10402 10401 10401 10399 10399 10400 10403 10404 10405 10404 10404 10406 10408 10407 10405 10402 10401 10401 10401 10404 10405 10401 10396 10395 10396 10396 10396 10396 10396 10396 10395 10394 10394 10394 10395 10397 10397 10396 10395 10394 10393 10393 10392 10392 10393 10393 10394 10395 10396 10397 10397 10396 10395 10394 10394 10393 10392 10390 10388 10386 10386 10385 10383 10381 10379
10403 10402 10402 10402 10402 10401 10401 10401 10400 10399 10399 10398 10397 10397 10395 10394 10393 10391 10390 10389 10389 10388 10388 10388 10388 10388 10390 10391 10392 10390 10390 10393 10397 10398 10395 10393 10392 10390 10390 10392 10392 10386 10382 10382 10384 10385 10384 10384 10384 10384 10384 10383 10384 10383 10383 10384 10385 10386 10385 10384 10383 10383 10383 10382 10382 10381 10382 10384 10385 10386 10385 10385 10384 10384 10383 10382 10381 10379 10377 10375 10374 10373 10372 10371 10369
10391 10391 10391 10390 10390 10390 10390 10389 10388 10387 10386 10385 10384 10383 10382 10381 10380 10379 10378 10377 10376 10375 10375 10376 10376 10376 10378 10379 10379 10378 10377 10379 10383 10384 10383 10382 10382 10381 10380 10380 10378 10373 10369 10370 10372 10373 10372 10372 10372 10372 10371 10371 10371 10371 10372 10372 10373 10374 10374 10374 10373 10372 10373 10373 10373 10372 10372 10373 10373 10374 10373 10373 10373 10373 10372 10371 10370 10369 10367 10364 10363 10362 10361 10360 10359
10380 10380 10379 10378 10378 10377 10377 10376 10375 10374 10372 10370 10369 10368 10367 10366 10366 10366 10364 10363 10362 10361 10362 10363 10363 10363 10365 10366 10365 10364 10364 10365 10367 10369 10369 10369 10369 10369 10369 10368 10367 10363 10358 10356 10358 10359 10357 10356 10357 10357 10357 10356 10357 10358 10360 10361 10362 10363 10363 10363 10363 10362 10362 10363 10363 10362 10363 10363 10363 10362 10362 10362 10362 10362 10361 10360 10360 10358 10356 10354 10353 10352 10351 10350 10349
10369 10368 10367 10366 10365 10365 10364 10363 10361 10360 10358 10357 10355 10354 10353 10352 10352 10351 10350 10348 10348 10347 10348 10349 10348 10348 10349 10351 10350 10349 10349 10350 10351 10352 10354 10354 10355 10355 10355 10356 10355 10352 10348 10346 10347 10346 10342 10340 10341 10341 10340 10341 10342 10344 10347 10349 10350 10351 10353 10354 10353 10352 10352 10352 10352 10352 10353 10354 10353 10352 10352 10351 10351 10351 10350 10350 10349 10348 10346 10345 10343 10342 10342 10341 10340
10356 10355 10354 10353 10352 10351 10350 10348 10347 10345 10344 10343 10342 10340 10339 10337 10336 10336 10335 10333 10332 10331 10332 10334 10334 10332 10333 10335 10335 10333 10334 10334 10335 10336 10337 10338 10339 10340 10341 10341 10341 10340 10338 10337 10336 10333 10329 10327 10327 10326 10325 10325 10326 10328 10332 10335 10337 10339 10342 10342 10343 10343 10342 10342 10342 10343 10344 10344 10344 10343 10342 10342 10341 10341 10341 10340 10339 10338 10336 10335 10334 10334 10333 10333 10331
10341 10340 10339 10338 10338 10336 10335 10333 10332 10330 10330 10329 10328 10327 10325 10323 10321 10321 10320 10319 10317 10316 10315 10317 10318 10317 10317 10319 10319 10318 10318 10318 10319 10320 10321 10321 10322 10323 10324 10326 10326 10325 10326 10326 10324 10320 10316 10315 10316 10316 10314 10312 10310 10310 10313 10318 10323 10328 10330 10331 10332 10333 10333 10332 10333 10334 10335 10335 10335 10334 10333 10333 10332 10332 10331 10331 10329 10328 10327 10326 10325 10325 10325 10324 10322
10329 10328 10326 10325 10324 10323 10322 10320 10319 10318 10317 10316 10315 10315 10313 10311 10308 10306 10306 10306 10305 10303 10301 10300 10301 10302 10302 10303 10303 10303 10303 10303 10303 10304 10304 10304 10305 10307 10308 10309 10310 10310 10311 10313 10312 10310 10306 10303 10303 10304 10303 10301 10300 10298 10296 10298 10303 10311 10318 10322 10322 10322 10322 10322 10324 10325 10326 10326 10325 10325 10324 10324 10324 10323 10322 10321 10319 10318 10317 10317 10317 10317 10316 10314 10313
10316 10315 10313 10312 10311 10309 10309 10308 10306 10306 10305 10304 10303 10302 10301 10300 10297 10294 10292 10291 10290 10290 10289 10287 10286 10286 10287 10287 10288 10289 10290 10289 10288 10287 10287 10288 10290 10291 10292 10294 10295 10295 10296 10299 10301 10300 10296 10291 10288 10289 10291 10293 10292 10290 10287 10286 10288 10293 10301 10309 10312 10312 10311 10312 10314 10315 10315 10315 10315 10315 10315 10314 10314 10313 10312 10310 10309 10308 10307 10307 10307 10307 10306 10304 10302
10301 10300 10299 10298 10297 10296 10295 10295 10294 10293 10292 10291 10290 10288 10287 10287 10286 10284 10282 10279 10276 10275 10274 10274 10273 10272 10271 10271 10273 10275 10276 10276 10273 10271 10271 10273 10275 10276 10277 10279 10280 10281 10283 10286 10287 10286 10282 10277 10275 10277 10281 10284 10283 10281 10279 10280 10281 10281 10284 10290 10297 10300 10302 10304 10305 10306 10306 10306 10306 10306 10305 10305 10304 10304 10302 10301 10300 10299 10298 10298 10298 10298 10296 10295 10293
10288 10287 10286 10285 10284 10283 10283 10282 10282 10281 10279 10278 10277 10275 10274 10273 10272 10271 10270 10268 10265 10262 10260 10260 10261 10260 10257 10256 10258 10261 10262 10261 10260 10258 10257 10259 10261 10263 10264 10265 10266 10267 10270 10272 10272 10270 10268 10265 10265 10268 10273 10275 10273 10271 10271 10273 10274 10275 10275 10276 10280 10286 10291 10295 10297 10297 10297 10298 10298 10297 10297 10296 10296 10295 10294 10293 10292 10291 10290 10291 10290 10289 10288 10286 10285
10276 10274 10274 10273 10272 10271 10271 10270 10269 10268 10267 10266 10264 10263 10261 10260 10259 10258 10256 10255 10254 10252 10249 10247 10247 10247 10245 10244 10246 10248 10248 10248 10247 10246 10246 10247 10248 10250 10250 10251 10252 10255 10258 10259 10258 10257 10256 10256 10257 10260 10263 10263 10262 10262 10263 10264 10264 10266 10268 10269 10271 10274 10277 10280 10283 10286 10288 10289 10290 10289 10289 10288 10287 10285 10284 10283 10283 10283 10283 10282 10282 10281 10279 10278 10277
10263 10263 10262 10262 10261 10260 10260 10259 10258 10256 10255 10254 10252 10250 10249 10248 10246 10245 10244 10243 10242 10241 10239 10236 10235 10234 10233 10234 10236 10235 10235 10236 10236 10235 10234 10235 10236 10237 10238 10239 10240 10243 10245 10247 10246 10245 10245 10248 10250 10251 10251 10251 10250 10252 10254 10255 10255 10256 10259 10262 10264 10266 10267 10268 10270 10273 10276 10279 10279 10279 10279 10278 10276 10276 10275 10275 10274 10274 10274 10274 10274 10273 10271 10270 10270
10252 10251 10251 10250 10249 10249 10248 10247 10246 10245 10243 10242 10240 10239 10237 10236 10234 10233 10233 10232 10231 10230 10228 10226 10225 10224 10224 10225 10225 10224 10224 10224 10223 10222 10222 10222 10223 10224 10226 10227 10229 10231 10233 10235 10235 10235 10236 10238 10240 10240 10239 10240 10242 10244 10245 10245 10246 10249 10252 10254 10256 10258 10259 10261 10262 10264 10265 10267 10268 10268 10267 10267 10266 10266 10266 10266 10266 10266 10266 10266 10266 10265 10264 10263 10263
10240 10240 10239 10238 10238 10237 10237 10236 10235 10233 10232 10231 10229 10228 10226 10225 10223 10222 10221 10220 10219 10218 10217 10216 10216 10215 10215 10215 10214 10213 10213 10212 10210 10210 10210 10211 10213 10214 10215 10216 10218 10220 10221 10223 10224 10226 10227 10227 10227 10228 10229 10231 10234 10236 10237 10237 10240 10243 10245 10247 10249 10250 10252 10253 10255 10256 10256 10256 10256 10257 10257 10257 10257 10258 10258 10258 10258 10258 10258 10259 10259 10258 10257 10257 10257
10230 10229 10229 10228 10227 10227 10226 10225 10224 10222 10221 10220 10219 10217 10216 10214 10212 10211 10210 10209 10207 10207 10207 10207 10206 10206 10205 10204 10202 10202 10202 10200 10199 10200 10201 10202 10203 10204 10205 10206 10207 10209 10211 10213 10215 10217 10218 10218 10219 10220 10221 10223 10225 10227 10227 10229 10233 10236 10237 10239 10241 10243 10244 10245 10246 10247 10248 10248 10248 10248 10248 10249 10250 10250 10251 10250 10251 10251 10252 10252 10252 10251 10251 10251 10251
10220 10219 10219 10218 10217 10216 10215 10214 10213 10212 10211 10210 10209 10207 10206 10204 10202 10201 10200 10198 10197 10197 10197 10197 10196 10196 10196 10194 10192 10192 10192 10191 10190 10191 10192 10193 10194 10195 10196 10196 10197 10200 10204 10206 10207 10208 10209 10209 10210 10211 10213 10215 10217 10217 10219 10222 10225 10228 10231 10233 10234 10235 10236 10237 10238 10239 10239 10240 10240 10240 10241 10242 10243 10244 10244 10244 10245 10245 10246 10246 10246 10246 10245 10245 10245
10210 10210 10209 10208 10208 10207 10206 10204 10203 10202 10201 10200 10200 10198 10196 10194 10193 10192 10191 10189 10188 10187 10187 10187 10187 10187 10186 10184 10184 10184 10183 10182 10181 10182 10183 10183 10184 10186 10187 10187 10189 10192 10196 10198 10199 10200 10200 10201 10201 10202 10205 10207 10208 10208 10211 10214 10217 10221 10225 10227 10228 10227 10228 10230 10231 10231 10231 10232 10233 10233 10235 10236 10237 10237 10237 10238 10239 10239 10239 10240 10240 10240 10240 10239 10240
10201 10201 10200 10199 10199 10198 10197 10195 10194 10194 10193 10192 10191 10190 10188 10186 10185 10184 10182 10180 10179 10179 10179 10179 10179 10178 10177 10176 10176 10176 10175 10174 10173 10174 10174 10175 10176 10177 10179 10180 10181 10184 10187 10189 10190 10191 10191 10192 10192 10194 10197 10199 10200 10200 10203 10206 10211 10215 10218 10219 10220 10221 10222 10224 10224 10223 10223 10224 10225 10226 10228 10230 10230 10230 10232 10233 10233 10233 10233 10234 10234 10234 10234 10234 10234
10193 10192 10192 10191 10190 10190 10188 10187 10186 10186 10185 10184 10183 10182 10180 10178 10177 10175 10174 10173 10172 10172 10172 10172 10171 10170 10169 10168 10168 10168 10168 10167 10167 10166 10166 10167 10168 10169 10171 10173 10175 10176 10178 10180 10181 10182 10182 10183 10185 10188 10190 10191 10192 10193 10195 10198 10202 10206 10209 10211 10214 10215 10215 10216 10216 10215 10215 10216 10218 10220 10222 10223 10223 10224 10225 10227 10227 10227 10228 10228 10228 10229 10229 10229 10229
10185 10185 10184 10183 10183 10182 10181 10180 10179 10178 10177 10176 10176 10175 10173 10172 10170 10168 10167 10166 10165 10164 10165 10165 10165 10163 10162 10161 10161 10161 10161 10161 10160 10160 10159 10160 10161 10163 10165 10167 10168 10169 10169 10171 10172 10173 10173 10175 10178 10181 10183 10185 10185 10185 10187 10189 10193 10198 10202 10205 10207 10207 10208 10209 10209 10208 10208 10209 10211 10214 10216 10217 10217 10218 10219 10221 10221 10222 10222 10223 10223 10223 10223 10224 10224
10178 10177 10177 10176 10175 10175 10174 10173 10172 10171 10170 10169 10169 10168 10166 10165 10163 10162 10160 10160 10158 10157 10157 10157 10158 10156 10156 10155 10155 10154 10154 10154 10154 10154 10154 10154 10155 10157 10158 10160 10161 10162 10162 10163 10164 10164 10165 10168 10171 10174 10175 10176 10177 10178 10180 10183 10188 10192 10195 10197 10198 10200 10201 10201 10201 10202 10202 10203 10204 10208 10210 10211 10210 10212 10214 10215 10215 10216 10217 10217 10218 10218 10218 10219 10219
10170 10170 10170 10169 10169 10168 10167 10166 10165 10164 10163 10162 10162 10161 10159 10158 10157 10156 10155 10154 10153 10151 10150 10150 10150 10150 10149 10149 10149 10148 10148 10148 10148 10148 10148 10148 10149 10150 10151 10153 10155 10156 10156 10156 10157 10158 10159 10162 10164 10166 10167 10168 10169 10172 10176 10179 10182 10184 10187 10189 10191 10192 10193 10194 10194 10195 10195 10196 10199 10203 10204 10204 10205 10206 10208 10209 10210 10210 10211 10212 10212 10213 10213 10214 10214
10164 10163 10163 10163 10162 10162 10161 10160 10159 10158 10157 10156 10155 10154 10152 10151 10151 10150 10149 10148 10148 10147 10145 10145 10144 10144 10143 10143 10143 10142 10142 10142 10142 10142 10142 10141 10142 10143 10145 10147 10149 10151 10151 10150 10151 10153 10155 10157 10158 10159 10160 10161 10164 10168 10171 10173 10175 10177 10179 10181 10183 10185 10186 10186 10187 10188 10188 10189 10194 10197 10198 10198 10199 10201 10202 10203 10204 10205 10205 10206 10207 10207 10208 10209 10209
10157 10157 10157 10156 10156 10156 10155 10154 10153 10152 10151 10150 10148 10147 10146 10144 10144 10143 10143 10142 10142 10142 10141 10140 10139 10138 10138 10137 10137 10137 10137 10137 10137 10136 10136 10136 10137 10138 10139 10141 10143 10145 10145 10145 10146 10148 10149 10150 10151 10152 10153 10156 10159 10162 10165 10166 10168 10169 10171 10173 10175 10177 10178 10179 10180 10180 10181 10185 10189 10191 10192 10192 10194 10195 10196 10197 10198 10199 10200 10201 10202 10202 10203 10204 10204
10151 10151 10150 10150 10150 10149 10149 10148 10147 10146 10145 10144 10143 10141 10140 10139 10137 10137 10136 10136 10135 10135 10135 10134 10134 10133 10133 10132 10132 10132 10132 10132 10131 10131 10131 10132 10132 10133 10134 10135 10137 10138 10139 10140 10141 10141 10142 10143 10145 10147 10149 10152 10154 10156 10157 10159 10160 10162 10163 10165 10167 10169 10170 10171 10173 10174 10177 10181 10184 10185 10186 10186 10188 10189 10190 10191 10193 10194 10195 10196 10197 10197 10198 10198 10199
10145 10145 10145 10144 10143 10143 10143 10142 10142 10141 10140 10139 10137 10136 10135 10133 10132 10131 10130 10130 10129 10129 10129 10129 10128 10128 10127 10127 10127 10127 10127 10127 10127 10127 10127 10127 10128 10128 10129 10130 10131 10132 10133 10135 10135 10136 10137 10138 10140 10142 10144 10145 10147 10148 10150 10152 10153 10155 10156 10158 10160 10162 10163 10165 10167 10170 10173 10176 10178 10178 10179 10180 10182 10183 10184 10186 10187 10188 10190 10191 10191 10192 10193 10193 10194